Regional Weather Roundup
Issued by NWS

Home | Current Version | Previous Version | Text Only | Print | Product List | Glossary Off
Versions: 1 2 3 4 5 6 7 8 9 10 11 12 13 14 15 16 17 18 19 20 21 22 23 24 25 26 27 28 29 30 31 32 33 34 35 36 37 38 39 40 41 42 43 44 45 46 47 48 49 50

000
ASUS43 KLMK 221502
RWRKY
KENTUCKY REGIONAL WEATHER ROUNDUP
NATIONAL WEATHER SERVICE LOUISVILLE KY
1100 AM EDT SUN OCT 22 2017

NOTE "FAIR" INDICATES FEW OR NO CLOUDS BELOW 12,000 FEET
WITH NO SIGNIFICANT WEATHER AND/OR OBSTRUCTIONS TO VISIBILITY.

KYZ001>023-026-027-061>063-070>075-221600-
WESTERN AND SOUTH CENTRAL KENTUCKY

CITY           SKY/WX    TMP DP  RH WIND       PRES   REMARKS
PADUCAH        MOSUNNY   72  62  71 S10G17    30.02S
HENDERSON      CLOUDY    68  60  75 SE12G17   30.07F
OWENSBORO      CLOUDY    72  58  61 S18       30.10F
HOPKINSVILLE   CLOUDY    70  57  63 SE10      30.09S
BOWLING GREEN  MOSUNNY   73  59  61 S12G24    30.15F
GLASGOW        NOT AVBL
$$

KYZ024-025-028>034-038-045-046-053-221600-
NORTH CENTRAL KENTUCKY

CITY           SKY/WX    TMP DP  RH WIND       PRES   REMARKS
LOUISVILLE/SDF CLOUDY    69  54  58 S10       30.16F
LOUISVILLE/LOU CLOUDY    68  55  63 S8        30.18S HAZE
FORT KNOX      SUNNY     70  55  59 S18       30.15S
$$

KYZ035>037-039>044-047>052-055>060-089>105-221600-
NORTHEAST KENTUCKY

CITY           SKY/WX    TMP DP  RH WIND       PRES   REMARKS
LEXINGTON      CLOUDY    68  51  54 SE14G20   30.23S
COVINGTON      MOSUNNY   68  53  58 S13       30.20S
FRANKFORT      CLOUDY    68  50  52 S9        30.21S
$$

KYZ054-064>069-076>088-106>120-221600-
SOUTHEAST KENTUCKY

CITY           SKY/WX    TMP DP  RH WIND       PRES   REMARKS
JACKSON        SUNNY     66  50  56 CALM      30.27F
LONDON         SUNNY     66  50  56 SE5       30.26S
SOMERSET       NOT AVBL
MIDDLESBORO    SUNNY     65  51  60 CALM      30.27F
MONTICELLO     SUNNY     68  54  60 E8        30.25S
$$





USA.gov is the U.S. government's official web portal to all federal, state and local government web resources and services.